Home   Weather   Jacksonville   Past weeks

Flag for USA Past Weather in Jacksonville, North Carolina, USA — Yesterday and Last 2 Weeks

Now
48 °F

Light rain. Overcast.


Feels Like: 47 °F
Forecast: 43 / 52 °F
Wind: 3 mph from Northwest

Location: Jacksonville - New River

Current Time: Dec 4, 2016 at 1:29:13 pm

Latest Report: Dec 4, 2016 at 12:56 pm


Visibility: 10 mi

Pressure: 30.25 "Hg

Humidity: 86%

Dew Point: 44 °F

Location of JacksonvilleLocation

Past Weather in Jacksonville — Graph

°F

Jacksonville Temperature Yesterday

Maximum temperature yesterday: 54 °F (at 2:56 pm)
Minimum temperature yesterday: 40 °F (at 3:56 am)
Average temperature yesterday: 46 °F

High & Low Weather Summary for the Past Weeks

 TemperatureHumidityPressure
High76 °F (Nov 19, 1:56 pm)100% (Nov 24, 10:56 pm)30.37 "Hg (Nov 24, 10:56 pm)
Low29 °F (Nov 21, 6:56 am)21% (Nov 21, 1:56 pm)29.75 "Hg (Dec 1, 3:56 am)
Average53 °F73%30.12 "Hg
* Reported Nov 19 11:56 am — Dec 4 11:56 am, Jacksonville, Weather by CustomWeather, © 2016

Note: Actual official high and low records may vary slightly from our data, if they occured in-between our weather recording intervals... More about our weather records

Advertising

Jacksonville Weather History for the Previous 24 Hours

Scroll right to see more
 ConditionsComfort  
Time TempWeatherWind HumidityBarometerVisibility
11:56 am
Sun, Dec 4
48 °FLight rain. Mostly cloudy.No wind83%30.25 "Hg10 mi
10:56 am46 °FLight rain. Overcast.No wind86%30.28 "Hg10 mi
9:56 am46 °FLight rain. Overcast.5 mph79%30.30 "Hg10 mi
8:56 am45 °FLight rain. Mostly cloudy.6 mph80%30.30 "Hg10 mi
7:56 am46 °FOvercast.5 mph73%30.29 "Hg10 mi
6:56 am45 °FOvercast.3 mph76%30.27 "Hg10 mi
5:56 am45 °FOvercast.5 mph74%30.27 "Hg10 mi
4:56 am45 °FPartly cloudy.5 mph71%30.24 "Hg10 mi
3:56 am46 °FOvercast.5 mph68%30.25 "Hg10 mi
2:56 am46 °FMostly cloudy.7 mph66%30.24 "Hg10 mi
1:56 am46 °FOvercast.6 mph68%30.25 "Hg10 mi
12:56 am46 °FOvercast.3 mph79%30.26 "Hg10 mi
11:56 pm
Sat, Dec 3
44 °FClear.No wind89%30.28 "Hg10 mi
10:56 pm45 °FClear.3 mph80%30.29 "Hg10 mi
9:56 pm43 °FClear.3 mph89%30.27 "Hg10 mi
8:56 pm44 °FClear.No wind85%30.25 "Hg10 mi
7:56 pm43 °FClear.No wind93%30.25 "Hg10 mi
6:56 pm46 °FClear.No wind71%30.25 "Hg10 mi
5:56 pm49 °FClear.3 mph57%30.24 "Hg10 mi
4:56 pm51 °FSunny.7 mph46%30.22 "Hg10 mi
3:56 pm52 °FSunny.6 mph41%30.22 "Hg10 mi
2:56 pm54 °FSunny.6 mph38%30.21 "Hg10 mi
1:56 pm53 °FSunny.10 mph39%30.21 "Hg10 mi
Weather by CustomWeather, © 2016

See weather overviewHow to use our weather pages